I8ZSE-10 Weather Reports


time (UTC)temp
C
wind
direction
speed
KPH
gust
KPH
rain 1hr
cm
rain 24hr
cm
rain mn
cm
humidity
%
barometer
mb
20260507011208 13 258 3.2 4.8 11.30 17.30 13.13 91 1015.1
20260507010208 13 235 3.2 4.8 10.69 15.29 11.15 90 1015.1
20260507005208 13 242 1.6 3.2 9.75 13.31 9.17 91 1015.1
20260507004208 13 275 3.2 4.8 8.56 11.33 7.19 91 1015.3
20260507003208 13 250 3.2 4.8 7.34 9.42 5.28 92 1015.5
20260507002208 13 263 3.2 4.8 6.12 7.59 3.45 92 1015.7
20260507001208 13 253 3.2 6.4 5.13 5.97 18.31 92 1015.7
20260507000208 13 242 3.2 6.4 4.19 4.60 4.67 91 1015.9
20260506235208 12 256 4.8 8.0 3.38 3.53 3.53 92 1015.8
20260506234208 12 250 4.8 8.0 2.67 2.77 2.77 92 1015.8
20260506233208 12 252 3.2 6.4 20.42 21.01 21.01 93 1015.7
20260506232208 12 260 3.2 6.4 14.55 14.76 14.76 93 1015.6
20260506231108 12 260 3.2 6.4 8.36 8.36 8.36 92 1015.5
20260506230008 12 250 3.2 4.8 3.40 3.40 3.40 90 1015.6
20260506225008 13 267 3.2 6.4 1.37 1.37 1.37 86 1015.7
20260506224008 13 248 3.2 4.8 0.84 0.84 0.84 84 1015.7
20260506223008 13 241 3.2 4.8 0.51 0.51 0.51 82 1015.8
20260506222008 13 209 3.2 4.8 0.15 0.15 0.15 81 1016.2
20260506221008 13 238 3.2 4.8 0.00 0.00 0.00 81 1016.3
20260506220008 13 248 3.2 4.8 0.00 0.00 0.00 82 1016.2
20260506215008 13 244 4.8 6.4 0.00 0.00 0.00 81 1016.2
20260506214008 13 265 3.2 6.4 0.00 0.00 0.00 81 1016.3
20260506213008 13 252 4.8 6.4 0.00 0.00 0.00 80 1016.3
20260506212008 13 264 3.2 6.4 0.00 0.00 0.00 80 1016.4
20260506211008 13 279 3.2 6.4 0.00 0.00 0.00 80 1016.4
20260506210008 13 271 4.8 8.0 0.00 0.00 0.00 79 1016.5
20260506205008 14 284 6.4 9.7 0.00 0.00 0.00 76 1016.7
20260506203008 14 255 6.4 11.3 0.00 0.00 0.00 73 1016.4
20260506202008 14 268 4.8 8.0 0.00 0.00 0.00 71 1016.3
20260506201008 15 220 4.8 8.0 0.00 0.00 0.00 68 1016.3
20260506200008 15 274 4.8 8.0 0.00 0.00 0.00 64 1016.3
20260506195008 15 265 4.8 8.0 0.00 0.00 0.00 62 1016.1
20260506194008 15 254 4.8 8.0 0.00 0.00 0.00 62 1016.0
20260506193008 15 271 4.8 8.0 0.00 0.00 0.00 61 1015.8
20260506192008 15 261 4.8 8.0 0.00 0.00 0.00 60 1015.6
20260506191008 16 272 4.8 6.4 0.00 0.00 0.00 61 1015.5
20260506190008 15 261 4.8 6.4 0.00 0.00 0.00 63 1015.4
20260506185008 15 262 4.8 8.0 0.00 0.00 0.00 64 1015.3
20260506184008 16 259 4.8 8.0 0.00 0.00 0.00 64 1015.3
20260506183008 16 268 4.8 8.0 0.00 0.00 0.00 64 1015.4
20260506182008 16 260 6.4 9.7 0.00 0.00 0.00 64 1015.5
20260506181008 16 263 6.4 9.7 0.00 0.00 0.00 64 1015.5
20260506180008 17 248 6.4 9.7 0.00 0.00 0.00 63 1015.5
20260506175008 17 253 4.8 8.0 0.00 0.00 0.00 62 1015.6
20260506174008 17 250 4.8 8.0 0.00 0.00 0.00 62 1015.6
20260506173008 17 262 4.8 9.7 0.00 0.00 0.00 61 1015.7
20260506172008 17 271 4.8 9.7 0.00 0.00 0.00 60 1015.7
20260506171008 17 263 4.8 8.0 0.00 0.00 0.00 61 1015.6
20260506170008 18 257 6.4 9.7 0.00 0.00 0.00 61 1015.7
20260506165008 18 258 8.0 9.7 0.00 0.00 0.00 60 1015.8
20260506164008 18 251 8.0 9.7 0.00 0.00 0.00 60 1015.8
20260506163008 18 254 8.0 9.7 0.00 0.00 0.00 60 1015.9
20260506162008 19 209 8.0 11.3 0.00 0.00 0.00 59 1016.0
20260506161008 19 209 8.0 11.3 0.00 0.00 0.00 58 1015.9
20260506160008 19 274 8.0 9.7 0.00 0.00 0.00 58 1015.9
20260506155008 19 242 6.4 9.7 0.00 0.00 0.00 58 1015.9
20260506154008 20 230 6.4 9.7 0.00 0.00 0.00 56 1015.9
20260506153008 20 287 6.4 8.0 0.00 0.00 0.00 54 1016.0
20260506152008 20 262 6.4 8.0 0.00 0.00 0.00 53 1016.0
20260506151008 20 276 6.4 8.0 0.00 0.00 0.00 52 1016.1
20260506150008 20 277 6.4 8.0 0.00 0.00 0.00 52 1016.2
20260506145008 20 282 6.4 8.0 0.00 0.00 0.00 52 1016.3
20260506144008 20 269 6.4 8.0 0.00 0.00 0.00 52 1016.3
20260506143008 20 265 6.4 9.7 0.00 0.00 0.00 51 1016.3
20260506142008 21 255 8.0 11.3 0.00 0.00 0.00 50 1016.4
20260506141008 21 198 8.0 11.3 0.00 0.00 0.00 49 1016.5
20260506140008 21 278 9.7 11.3 0.00 0.00 0.00 49 1016.5
20260506135008 21 266 8.0 11.3 0.00 0.00 0.00 48 1016.5
20260506134008 21 254 8.0 9.7 0.00 0.00 0.00 47 1016.5
20260506133008 21 268 8.0 9.7 0.00 0.00 0.00 47 1016.5
20260506132008 21 245 8.0 11.3 0.00 0.00 0.00 47 1016.5
20260506131008 21 209 8.0 11.3 0.00 0.00 0.00 48 1016.6
20260506130008 21 194 8.0 11.3 0.00 0.00 0.00 47 1016.7
20260506125008 21 152 9.7 12.9 0.00 0.00 0.00 46 1016.8
20260506124008 21 211 8.0 9.7 0.00 0.00 0.00 48 1016.9
20260506123008 21 190 6.4 8.0 0.00 0.00 0.00 49 1016.8
20260506122008 21 242 6.4 9.7 0.00 0.00 0.00 49 1016.9
20260506121008 21 189 8.0 9.7 0.00 0.00 0.00 50 1017.0
20260506120008 21 248 8.0 9.7 0.00 0.00 0.00 49 1017.0
20260506115008 21 235 8.0 9.7 0.00 0.00 0.00 48 1017.1
20260506114008 21 193 6.4 8.0 0.00 0.00 0.00 50 1017.0
20260506113008 21 211 4.8 4.8 0.00 0.00 0.00 52 1017.0
20260506112008 21 256 3.2 3.2 0.00 0.00 0.00 54 1016.9
20260506111008 20 169 4.8 4.8 0.00 0.00 0.00 55 1016.9
20260506110008 20 212 6.4 6.4 0.00 0.00 0.00 56 1016.9
20260506105008 20 251 4.8 6.4 0.00 0.00 0.00 56 1016.8
20260506104008 20 256 4.8 6.4 0.00 0.00 0.00 58 1016.8
20260506103008 20 204 4.8 6.4 0.00 0.00 0.00 59 1016.9
20260506102008 20 209 4.8 6.4 0.00 0.00 0.00 59 1017.0
20260506101008 20 268 4.8 4.8 0.00 0.00 0.00 59 1017.1
20260506100008 20 277 3.2 3.2 0.00 0.00 0.00 59 1017.2
20260506095008 19 282 3.2 4.8 0.00 0.00 0.00 60 1017.1
20260506094008 19 222 3.2 4.8 0.00 0.00 0.00 61 1017.0
20260506093008 18 228 3.2 4.8 0.00 0.00 0.00 63 1017.0
20260506092008 18 218 3.2 4.8 0.00 0.00 0.00 64 1017.1
20260506091008 18 209 1.6 3.2 0.00 0.00 0.00 66 1017.0
20260506090008 17 277 1.6 3.2 0.00 0.00 0.00 67 1016.9
20260506085008 17 270 3.2 4.8 0.00 0.00 0.00 67 1016.9
20260506084008 17 250 3.2 4.8 0.00 0.00 0.00 68 1016.8
20260506083008 17 254 1.6 3.2 0.00 0.00 0.00 69 1016.6
20260506082009 16 264 3.2 4.8 0.00 0.00 0.00 70 1016.5
20260506081008 16 267 3.2 4.8 0.00 0.00 0.00 72 1016.4
20260506073008 16 278 1.6 1.6 0.00 0.00 0.00 73 1016.2
20260506072008 16 234 1.6 3.2 0.00 0.00 0.00 74 1016.1
20260506071008 16 184 1.6 3.2 0.00 0.00 0.00 74 1016.1
20260506062008 15 295 1.6 3.2 0.00 0.00 0.00 79 1015.8
20260506061008 15 289 1.6 1.6 0.00 0.00 0.00 79 1015.7
20260506051008 13 269 1.6 3.2 0.00 0.00 0.00 81 1015.1
20260506045008 13 264 0.0 1.6 0.00 0.00 0.00 81 1015.2
20260506044008 13 265 1.6 1.6 0.00 0.00 0.00 81 1015.1
20260506043008 13 276 1.6 1.6 0.00 0.00 0.00 81 1015.0
20260506042008 13 276 1.6 1.6 0.00 0.00 0.00 80 1015.0
20260506041008 13 280 1.6 1.6 0.00 0.00 0.00 79 1015.0
20260506040008 13 268 1.6 1.6 0.00 0.00 0.00 80 1014.9
20260506035008 13 283 1.6 3.2 0.00 0.00 0.00 81 1014.8
20260506034008 13 266 1.6 3.2 0.00 0.00 0.00 82 1014.8
20260506033008 13 275 1.6 3.2 0.00 0.00 0.00 80 1014.9
20260506032008 13 269 1.6 3.2 0.00 0.00 0.00 79 1014.9
20260506031008 13 273 3.2 4.8 0.00 0.00 0.00 78 1015.0
20260506030008 13 257 3.2 4.8 0.00 0.00 0.00 78 1015.0
20260506025008 13 256 3.2 3.2 0.00 0.00 0.00 78 1015.1
20260506024008 13 277 3.2 4.8 0.00 0.00 0.00 78 1015.1
20260506023008 13 258 3.2 4.8 0.00 0.00 0.00 77 1015.2
20260506022008 14 257 3.2 4.8 0.00 0.00 0.00 77 1015.3
20260506021008 13 264 1.6 3.2 0.00 0.00 0.00 77 1015.4
20260506020008 13 275 1.6 3.2 0.00 0.00 0.00 77 1015.5
20260506015008 13 270 1.6 3.2 0.00 0.00 0.00 77 1015.5
20260506014008 13 283 1.6 3.2 0.00 0.00 0.00 76 1015.4
20260506013008 13 262 1.6 3.2 0.00 0.00 0.00 75 1015.4
20260506012008 14 270 1.6 3.2 0.00 0.00 0.00 74 1015.5